112  
ASUS43 KLMK 161010  
RWRKY  
KENTUCKY REGIONAL WEATHER ROUNDUP  
NATIONAL WEATHER SERVICE LOUISVILLE KY  
600 AM EDT SAT OCT 16 2021  
 
NOTE "FAIR" INDICATES FEW OR NO CLOUDS BELOW 12,000 FEET  
WITH NO SIGNIFICANT WEATHER AND/OR S TO VISIBILITY
.  
 
KYZ001>023-026-027-061>063-070>075-161100-  
WESTERN AND SOUTH CENTRAL KENTUCKY  
 
CITY SKY/WX TMP DP RH WIND PRES REMARKS
 
PADUCAH CLEAR 50 44 80 NW5 30.10R  
HENDERSON CLEAR 50 45 83 NW8 30.06R  
OWENSBORO CLEAR 51 46 83 NW10 30.04R  
HOPKINSVILLE CLEAR 51 50 96 NW9 30.06R  
BOWLING GREEN CLEAR 53 48 83 NW6 30.02R  
GLASGOW CLOUDY 54 51 89 NW10G18 29.98R  

 
 
KYZ024-025-028>034-038-045-046-053-161100-  
NORTH CENTRAL KENTUCKY  
 
CITY SKY/WX TMP DP RH WIND PRES REMARKS
 
LOUISVILLE/SDF CLOUDY 55 46 71 NW13G20 29.96R  
LOUISVILLE/LOU CLOUDY 55 47 74 W10G18 29.96R  
FORT KNOX CLOUDY 52 47 83 W8 29.97R  

 
 
KYZ035>037-039>044-047>052-055>060-089>105-161100-  
NORTHEAST KENTUCKY  
 
CITY SKY/WX TMP DP RH WIND PRES REMARKS
 
LEXINGTON LGT RAIN 55 53 93 NW13G23 29.89R  
COVINGTON MOCLDY 54 50 86 NW18 29.88R  
FRANKFORT CLOUDY 56 53 90 NW15G24 29.90R  

 
 
KYZ054-064>069-076>088-106>120-161100-  
SOUTHEAST KENTUCKY  
 
CITY SKY/WX TMP DP RH WIND PRES REMARKS
 
JACKSON LGT RAIN 61 58 90 VRB7 29.83R  
LONDON CLOUDY 62 60 93 NW9 29.85R  
SOMERSET LGT RAIN 59 57 94 NW16G25 29.87R FOG  
MIDDLESBORO HVY RAIN 65 65 100 CALM 29.84R  
MONTICELLO LGT RAIN 59 59 100 NW20 29.93R  

 
 
 
 
CLICK HERE TO GO TO PREVIOUS BULLETINS.

The Nexlab KY Page Main Text Page